FW9116 Weather Reports


time (UTC)temp
C
wind
direction
speed
KPH
gust
KPH
rain 1hr
cm
rain 24hr
cm
rain mn
cm
humidity
%
barometer
mb
20260507115556 11 16 1.6 6.4 0.00 0.00 0.00 78 1020.2
20260507115053 11 21 1.6 6.4 0.00 0.00 0.00 78 1020.3
20260507114608 11 24 1.6 4.8 0.00 0.00 0.00 78 1020.3
20260507114056 11 11 1.6 4.8 0.00 0.00 0.00 78 1020.3
20260507113556 11 19 1.6 6.4 0.00 0.00 0.00 78 1020.3
20260507113053 11 0 1.6 6.4 0.00 0.00 0.00 78 1020.4
20260507112553 11 43 1.6 4.8 0.00 0.00 0.00 78 1020.4
20260507112057 11 14 0.0 8.0 0.00 0.00 0.00 78 1020.3
20260507111555 11 14 1.6 8.0 0.00 0.00 0.00 78 1020.4
20260507111052 11 21 3.2 8.0 0.00 0.00 0.00 78 1020.4
20260507110558 11 17 1.6 6.4 0.00 0.00 0.00 78 1020.4
20260507110059 11 19 1.6 6.4 0.00 0.00 0.00 78 1020.4
20260507105553 11 31 1.6 6.4 0.00 0.00 0.00 78 1020.4
20260507105056 11 37 0.0 4.8 0.00 0.00 0.00 78 1020.5
20260507104555 11 37 0.0 4.8 0.00 0.00 0.00 78 1020.4
20260507104051 11 40 0.0 6.4 0.00 0.00 0.00 77 1020.5
20260507103557 11 0 0.0 6.4 0.00 0.00 0.00 77 1020.5
20260507103058 11 0 0.0 8.0 0.00 0.00 0.00 77 1020.5
20260507102552 11 0 1.6 11.3 0.00 0.00 0.00 77 1020.6
20260507102058 11 11 1.6 11.3 0.00 0.00 0.00 77 1020.6
20260507101556 11 19 3.2 8.0 0.00 0.00 0.00 77 1020.6
20260507101056 11 21 3.2 6.4 0.00 0.00 0.00 77 1020.6
20260507100555 11 0 0.0 9.7 0.00 0.00 0.00 76 1020.6
20260507100056 11 0 0.0 11.3 0.00 0.00 0.00 76 1020.7
20260507095553 11 5 3.2 11.3 0.00 0.00 0.00 76 1020.7
20260507095054 11 5 1.6 9.7 0.00 0.00 0.00 76 1020.8
20260507094600 11 12 3.2 12.9 0.00 0.00 0.00 76 1020.8
20260507094054 11 5 3.2 12.9 0.00 0.00 0.00 76 1020.9
20260507093553 11 21 1.6 6.4 0.00 0.00 0.00 75 1020.9
20260507093055 11 306 1.6 6.4 0.00 0.00 0.00 75 1021.0
20260507092559 12 360 0.0 6.4 0.00 0.00 0.00 75 1021.0
20260507092058 12 221 1.6 8.0 0.00 0.00 0.00 75 1021.0
20260507091554 12 0 1.6 9.7 0.00 0.00 0.00 75 1021.1
20260507091056 12 347 0.0 11.3 0.00 0.00 0.00 75 1021.1
20260507090557 12 323 1.6 11.3 0.00 0.00 0.00 75 1021.1
20260507090053 12 0 0.0 6.4 0.00 0.00 0.00 76 1021.2
20260507085554 12 0 1.6 8.0 0.00 0.00 0.00 75 1021.2
20260507085054 12 0 1.6 8.0 0.00 0.00 0.00 75 1021.1
20260507084559 12 9 1.6 6.4 0.00 0.00 0.00 75 1021.1
20260507084053 12 352 3.2 6.4 0.00 0.00 0.00 76 1021.1
20260507083554 12 23 1.6 6.4 0.00 0.00 0.00 76 1021.1
20260507083057 12 5 1.6 6.4 0.00 0.00 0.00 76 1021.1
20260507082555 12 327 0.0 6.4 0.00 0.00 0.00 77 1021.1
20260507082055 12 5 1.6 6.4 0.00 0.00 0.00 78 1021.1
20260507081553 12 355 0.0 9.7 0.00 0.00 0.00 78 1021.1
20260507081055 12 9 1.6 9.7 0.00 0.00 0.00 78 1021.2
20260507080556 12 5 0.0 6.4 0.00 0.00 0.00 78 1021.1
20260507080056 12 0 1.6 6.4 0.00 0.00 0.00 78 1021.1
20260507075555 12 42 0.0 8.0 0.00 0.00 0.00 78 1021.2
20260507075055 12 360 0.0 8.0 0.00 0.00 0.00 78 1021.2
20260507074554 12 14 1.6 8.0 0.00 0.00 0.00 78 1021.2
20260507074053 12 309 0.0 6.4 0.00 0.00 0.00 78 1021.2
20260507073556 12 0 0.0 6.4 0.00 0.00 0.00 78 1021.1
20260507073103 12 355 1.6 6.4 0.00 0.00 0.00 78 1021.1
20260507072554 12 0 1.6 4.8 0.00 0.00 0.00 78 1021.1
20260507072058 12 10 0.0 8.0 0.00 0.00 0.00 78 1021.1
20260507071554 12 0 1.6 8.0 0.00 0.00 0.00 79 1021.0
20260507071056 12 44 3.2 8.0 0.00 0.00 0.00 78 1021.0
20260507070556 12 9 1.6 8.0 0.00 0.00 0.00 78 1021.0
20260507070105 12 352 3.2 8.0 0.00 0.00 0.00 78 1021.0
20260507065600 12 29 3.2 12.9 0.00 0.00 0.00 78 1021.0
20260507065055 12 0 3.2 12.9 0.00 0.00 0.00 78 1021.0
20260507064558 12 352 3.2 11.3 0.00 0.00 0.00 79 1021.0
20260507064055 12 5 3.2 12.9 0.00 0.00 0.00 79 1021.1
20260507063553 12 19 4.8 12.9 0.00 0.00 0.00 79 1020.9
20260507063057 12 13 4.8 11.3 0.00 0.00 0.00 79 1020.9
20260507062553 12 0 1.6 8.0 0.00 0.00 0.00 79 1021.0
20260507062053 12 5 1.6 8.0 0.00 0.00 0.00 79 1021.1
20260507061555 12 0 1.6 11.3 0.00 0.00 0.00 80 1021.0
20260507061056 12 24 3.2 11.3 0.00 0.00 0.00 80 1021.0
20260507060555 12 12 1.6 14.5 0.00 0.00 0.00 80 1021.1
20260507060055 12 52 3.2 14.5 0.00 0.00 0.00 79 1021.1
20260507055556 12 13 4.8 17.7 0.00 0.00 0.00 79 1021.1
20260507055059 12 360 6.4 17.7 0.00 0.00 0.00 79 1021.1
20260507054556 12 5 3.2 17.7 0.00 0.00 0.00 79 1021.0
20260507054055 12 344 4.8 12.9 0.00 0.00 0.00 79 1021.0
20260507053556 12 13 1.6 12.9 0.00 0.00 0.00 79 1021.0
20260507053102 13 5 3.2 9.7 0.00 0.00 0.00 78 1021.0
20260507052555 13 0 3.2 14.5 0.00 0.00 0.00 78 1021.0
20260507052055 13 5 4.8 14.5 0.00 0.00 0.00 78 1021.0
20260507051555 13 9 1.6 12.9 0.00 0.00 0.00 78 1020.9
20260507051053 13 352 3.2 12.9 0.00 0.00 0.00 78 1020.9
20260507050556 13 360 4.8 12.9 0.00 0.00 0.00 78 1021.0
20260507050057 13 84 1.6 12.9 0.00 0.00 0.00 78 1020.9
20260507045553 13 5 3.2 8.0 0.00 0.00 0.00 78 1021.0
20260507045056 13 360 1.6 11.3 0.00 0.00 0.00 78 1020.9
20260507044623 13 311 3.2 11.3 0.00 0.00 0.00 78 1021.0
20260507044056 13 352 3.2 12.9 0.00 0.00 0.00 77 1020.9
20260507043555 13 34 4.8 16.1 0.00 0.00 0.00 77 1020.9
20260507043053 13 34 6.4 17.7 0.00 0.00 0.00 77 1020.8
20260507042556 13 318 4.8 17.7 0.00 0.00 0.00 77 1020.8
20260507042056 13 26 6.4 17.7 0.00 0.00 0.00 76 1020.8
20260507041555 13 5 6.4 14.5 0.00 0.00 0.00 76 1020.7
20260507041053 14 40 3.2 17.7 0.00 0.00 0.00 77 1020.6
20260507040556 14 333 3.2 17.7 0.00 0.00 0.00 76 1020.6
20260507040101 14 15 4.8 22.5 0.00 0.00 0.00 76 1020.5
20260507035553 14 33 1.6 22.5 0.00 0.00 0.00 76 1020.4
20260507035053 14 5 6.4 17.7 0.00 0.00 0.00 76 1020.4
20260507034602 15 355 3.2 12.9 0.00 0.00 0.00 76 1020.3
20260507034056 15 47 1.6 16.1 0.00 0.00 0.00 76 1020.2
20260507033554 15 336 1.6 16.1 0.00 0.00 0.00 76 1020.2
20260507033120 15 310 1.6 14.5 0.00 0.00 0.00 76 1020.0
20260507032556 15 5 1.6 6.4 0.00 0.00 0.00 77 1020.0
20260507032055 15 14 1.6 8.0 0.00 0.00 0.00 77 1019.8
20260507031603 15 11 3.2 8.0 0.00 0.00 0.00 77 1019.9
20260507031057 15 346 0.0 6.4 0.00 0.00 0.00 77 1019.8
20260507030557 15 350 1.6 6.4 0.00 0.00 0.00 77 1019.8
20260507030110 15 349 1.6 8.0 0.00 0.00 0.00 77 1019.7
20260507025556 15 321 3.2 8.0 0.00 0.00 0.00 76 1019.7
20260507025054 15 0 1.6 6.4 0.00 0.00 0.00 76 1019.6
20260507024609 15 297 1.6 12.9 0.00 0.00 0.00 76 1019.6
20260507024053 15 0 1.6 12.9 0.00 0.00 0.00 75 1019.5
20260507023556 15 11 3.2 12.9 0.00 0.00 0.00 75 1019.5
20260507023056 16 29 3.2 12.9 0.00 0.00 0.00 74 1019.4
20260507022554 16 336 1.6 11.3 0.00 0.00 0.00 74 1019.4
20260507022053 16 13 3.2 8.0 0.00 0.00 0.00 74 1019.4
20260507021558 16 11 1.6 8.0 0.00 0.00 0.00 73 1019.5
20260507021057 16 27 3.2 16.1 0.00 0.00 0.00 73 1019.4
20260507020557 16 0 3.2 16.1 0.00 0.00 0.00 73 1019.4
20260507015555 16 322 3.2 19.3 0.00 0.00 0.00 71 1019.6
20260507015057 17 331 3.2 16.1 0.00 0.00 0.00 71 1019.5
20260507014559 17 5 3.2 12.9 0.00 0.00 0.00 71 1019.5
20260507014054 17 347 3.2 20.9 0.00 0.00 0.00 72 1019.6
20260507013558 17 9 4.8 20.9 0.00 0.00 0.00 71 1019.6
20260507013102 17 345 3.2 16.1 0.00 0.00 0.00 71 1019.5
20260507012553 17 315 6.4 17.7 0.00 0.00 0.00 70 1019.5
20260507012053 17 40 3.2 17.7 0.00 0.00 0.00 70 1019.4
20260507011558 17 5 4.8 12.9 0.00 0.00 0.00 70 1019.4
20260507011052 18 19 3.2 11.3 0.00 0.00 0.00 70 1019.4
20260507010553 18 311 3.2 12.9 0.00 0.00 0.00 70 1019.4
20260507010054 18 352 3.2 12.9 0.00 0.00 0.00 70 1019.4
20260507005553 18 355 1.6 11.3 0.00 0.00 0.00 70 1019.4
20260507005054 18 350 3.2 11.3 0.00 0.00 0.00 70 1019.3
20260507004554 19 24 1.6 14.5 0.00 0.00 0.00 70 1019.4
20260507004055 19 333 3.2 14.5 0.00 0.00 0.00 70 1019.3
20260507003556 19 11 4.8 14.5 0.00 0.00 0.00 69 1019.2
20260507003101 20 51 1.6 9.7 0.00 0.00 0.00 69 1019.2
20260507002558 20 360 3.2 8.0 0.00 0.00 0.00 68 1019.1
20260507002059 20 0 0.0 4.8 0.00 0.00 0.00 67 1019.2
20260507001556 20 0 0.0 9.7 0.00 0.00 0.00 67 1019.2
20260507001057 19 0 3.2 9.7 0.00 0.00 0.00 65 1019.2
20260507000557 20 0 0.0 6.4 0.00 0.00 0.00 66 1019.2
20260507000054 20 5 1.6 8.0 0.00 0.00 0.00 66 1019.3
20260506235552 20 313 1.6 8.0 0.00 0.00 0.00 64 1019.1
20260506235053 20 0 0.0 8.0 0.00 0.00 0.00 66 1019.2
20260506234604 20 277 1.6 8.0 0.00 0.00 0.00 65 1019.2
20260506234056 19 0 3.2 8.0 0.00 0.00 0.00 66 1019.2
20260506233556 19 123 0.0 4.8 0.00 0.00 0.00 67 1019.3
20260506233057 19 0 0.0 4.8 0.00 0.00 0.00 67 1019.3
20260506232556 19 126 0.0 6.4 0.00 0.00 0.00 67 1019.3
20260506232100 18 160 1.6 6.4 0.00 0.00 0.00 67 1019.4
20260506231556 19 88 1.6 6.4 0.00 0.00 0.00 68 1019.4
20260506231056 19 139 0.0 6.4 0.00 0.00 0.00 68 1019.5
20260506230555 19 129 1.6 6.4 0.00 0.00 0.00 68 1019.6
20260506230107 19 252 1.6 8.0 0.00 0.00 0.00 68 1019.5
20260506225553 18 232 1.6 8.0 0.00 0.00 0.00 68 1019.6
20260506225057 19 198 0.0 4.8 0.00 0.00 0.00 69 1019.7
20260506224602 18 0 0.0 6.4 0.00 0.00 0.00 69 1019.6
20260506224054 18 98 3.2 6.4 0.00 0.00 0.00 69 1019.8
20260506223556 18 99 3.2 6.4 0.00 0.00 0.00 70 1019.8
20260506223101 18 84 1.6 6.4 0.00 0.00 0.00 70 1019.8
20260506222556 18 145 1.6 6.4 0.00 0.00 0.00 70 1019.9
20260506222057 18 153 0.0 4.8 0.00 0.00 0.00 70 1019.9
20260506221558 18 94 1.6 8.0 0.00 0.00 0.00 70 1020.1
20260506221056 18 117 1.6 17.7 0.00 0.00 0.00 70 1020.1
20260506220555 18 136 1.6 17.7 0.00 0.00 0.00 71 1020.1
20260506220057 18 229 4.8 12.9 0.00 0.00 0.00 70 1020.0
20260506215555 18 279 3.2 14.5 0.00 0.00 0.00 69 1019.9
20260506215056 18 95 3.2 14.5 0.00 0.00 0.00 68 1019.9
20260506214558 18 184 4.8 16.1 0.00 0.00 0.00 70 1019.9
20260506214054 17 128 4.8 16.1 0.00 0.00 0.00 72 1019.9
20260506213552 18 132 4.8 16.1 0.00 0.00 0.00 71 1019.9
20260506213101 17 203 3.2 11.3 0.00 0.00 0.00 72 1020.1
20260506212556 18 206 1.6 11.3 0.00 0.00 0.00 71 1020.2
20260506212053 18 290 4.8 12.9 0.00 0.00 0.00 70 1020.2
20260506211558 18 264 4.8 12.9 0.00 0.00 0.00 72 1020.3
20260506211056 18 0 1.6 6.4 0.00 0.00 0.00 71 1020.3
20260506210552 18 337 1.6 6.4 0.00 0.00 0.00 72 1020.3
20260506210058 17 17 1.6 12.9 0.00 0.00 0.00 72 1020.3
20260506205555 17 38 3.2 14.5 0.00 0.00 0.00 72 1020.2
20260506205054 18 109 6.4 14.5 0.00 0.00 0.00 71 1020.3
20260506204559 18 244 1.6 14.5 0.00 0.00 0.00 71 1020.2
20260506204053 18 288 4.8 14.5 0.00 0.00 0.00 71 1020.3
20260506203554 18 150 1.6 12.9 0.00 0.00 0.00 75 1020.2
20260506203104 17 252 3.2 12.9 0.00 0.00 0.00 73 1020.2
20260506202554 17 138 1.6 9.7 0.00 0.00 0.00 75 1020.2
20260506202057 16 194 3.2 11.3 0.00 0.00 0.00 76 1020.4
20260506201558 16 134 4.8 11.3 0.00 0.00 0.00 77 1020.3
20260506201057 16 185 3.2 11.3 0.00 0.00 0.00 77 1020.4
20260506200556 16 111 1.6 9.7 0.00 0.00 0.00 77 1020.5
20260506200059 16 183 3.2 9.7 0.00 0.00 0.00 77 1020.5
20260506195552 16 284 3.2 9.7 0.00 0.00 0.00 77 1020.5
20260506195053 16 170 0.0 6.4 0.00 0.00 0.00 77 1020.6
20260506194559 16 267 0.0 8.0 0.00 0.00 0.00 77 1020.7
20260506194055 16 223 3.2 11.3 0.00 0.00 0.00 78 1020.7
20260506193558 16 175 3.2 11.3 0.00 0.00 0.00 78 1020.7
20260506193058 16 290 6.4 11.3 0.00 0.00 0.00 77 1020.7
20260506192554 16 210 3.2 11.3 0.00 0.00 0.00 77 1020.7
20260506192057 16 196 3.2 8.0 0.00 0.00 0.00 77 1020.6
20260506191558 16 223 1.6 6.4 0.00 0.00 0.00 78 1020.6
20260506191054 16 0 1.6 8.0 0.00 0.00 0.00 77 1020.5
20260506190554 16 126 3.2 11.3 0.00 0.00 0.00 77 1020.5
20260506190101 16 0 3.2 11.3 0.00 0.00 0.00 79 1020.5
20260506185554 16 172 3.2 11.3 0.00 0.00 0.00 77 1020.4
20260506185053 15 235 3.2 12.9 0.00 0.00 0.00 78 1020.4
20260506184600 16 192 3.2 12.9 0.00 0.00 0.00 78 1020.4
20260506184054 16 135 1.6 9.7 0.00 0.00 0.00 78 1020.4
20260506183556 15 127 4.8 9.7 0.00 0.00 0.00 78 1020.4
20260506183100 16 267 0.0 8.0 0.00 0.00 0.00 79 1020.4
20260506182554 15 155 1.6 8.0 0.00 0.00 0.00 79 1020.5
20260506182054 15 164 3.2 8.0 0.00 0.00 0.00 81 1020.4
20260506181558 15 0 0.0 4.8 0.00 0.00 0.00 82 1020.5
20260506181054 15 202 1.6 8.0 0.00 0.00 0.00 83 1020.5
20260506180554 15 257 1.6 8.0 0.00 0.00 0.00 83 1020.5
20260506180100 14 200 1.6 8.0 0.00 0.00 0.00 83 1020.5
20260506175556 15 302 0.0 6.4 0.00 0.00 0.00 83 1020.5
20260506175052 14 302 0.0 6.4 0.00 0.00 0.00 84 1020.5
20260506174559 14 289 1.6 6.4 0.00 0.00 0.00 83 1020.5
20260506174053 14 0 0.0 4.8 0.00 0.00 0.00 84 1020.5
20260506173553 14 284 1.6 4.8 0.00 0.00 0.00 85 1020.4
20260506173127 14 180 1.6 4.8 0.00 0.00 0.00 84 1020.2
20260506172556 14 268 0.0 4.8 0.00 0.00 0.00 84 1020.3
20260506172100 13 290 1.6 3.2 0.00 0.00 0.00 83 1020.1
20260506171615 14 19 0.0 4.8 0.00 0.00 0.00 84 1020.2
20260506171056 13 19 0.0 4.8 0.00 0.00 0.00 84 1020.4
20260506170557 13 0 0.0 4.8 0.00 0.00 0.00 84 1020.3
20260506170056 13 0 0.0 3.2 0.00 0.00 0.00 84 1020.4
20260506165554 14 247 0.0 3.2 0.00 0.00 0.00 84 1020.3
20260506165054 14 0 0.0 3.2 0.00 0.00 0.00 85 1020.3
20260506164601 13 0 0.0 3.2 0.00 0.00 0.00 85 1020.2
20260506164053 13 247 0.0 3.2 0.00 0.00 0.00 85 1020.2
20260506163554 13 0 1.6 4.8 0.00 0.00 0.00 85 1020.4
20260506163107 13 177 1.6 4.8 0.00 0.00 0.00 85 1020.2
20260506162555 13 0 0.0 0.0 0.00 0.00 0.00 84 1020.1
20260506162054 13 0 0.0 0.0 0.00 0.00 0.00 84 1020.0
20260506161636 13 0 0.0 3.2 0.00 0.00 0.00 84 1020.1
20260506161054 13 0 0.0 4.8 0.00 0.00 0.00 84 1020.2
20260506160554 13 70 1.6 6.4 0.00 0.00 0.00 84 1019.9
20260506160109 13 51 3.2 9.7 0.00 0.00 0.00 84 1019.9
20260506155556 13 62 1.6 9.7 0.00 0.00 0.00 84 1019.8
20260506155054 13 74 1.6 9.7 0.00 0.00 0.00 85 1019.5
20260506154600 13 141 1.6 9.7 0.00 0.00 0.00 86 1019.4
20260506154054 13 107 3.2 6.4 0.00 0.00 0.00 86 1019.8
20260506153554 13 40 0.0 4.8 0.00 0.00 0.00 85 1020.1
20260506153100 13 40 1.6 6.4 0.00 0.00 0.00 85 1020.3
20260506152554 13 39 0.0 6.4 0.00 0.00 0.00 86 1020.3
20260506152054 13 312 1.6 6.4 0.00 0.00 0.00 86 1020.3
20260506151558 13 0 0.0 6.4 0.00 0.00 0.00 86 1020.3
20260506151054 13 319 0.0 6.4 0.00 0.00 0.00 86 1020.2
20260506150554 13 38 1.6 6.4 0.00 0.00 0.00 85 1020.2
20260506150057 13 17 0.0 4.8 0.00 0.00 0.00 85 1020.2
20260506145558 13 0 0.0 6.4 0.00 0.00 0.00 85 1020.1
20260506145055 13 17 1.6 6.4 0.00 0.00 0.00 85 1020.1
20260506144555 13 0 0.0 6.4 0.00 0.00 0.00 85 1020.1
20260506144054 13 293 0.0 0.0 0.00 0.00 0.00 85 1020.0
20260506143554 13 0 0.0 0.0 0.00 0.00 0.00 85 1019.8
20260506143058 13 0 0.0 0.0 0.00 0.00 0.00 85 1019.6
20260506142553 13 0 0.0 0.0 0.00 0.00 0.00 85 1019.5
20260506142057 13 0 0.0 1.6 0.00 0.00 0.00 85 1019.4
20260506141558 13 0 0.0 3.2 0.00 0.00 0.00 85 1019.4
20260506141055 13 0 0.0 3.2 0.00 0.00 0.00 85 1019.3
20260506140555 13 0 0.0 3.2 0.00 0.00 0.00 86 1019.4
20260506140055 13 0 0.0 1.6 0.00 0.00 0.00 85 1019.5
20260506135555 13 0 0.0 0.0 0.00 0.00 0.00 85 1019.3
20260506135054 13 0 0.0 0.0 0.00 0.00 0.00 85 1019.4
20260506134601 13 0 0.0 0.0 0.00 0.00 0.00 85 1019.4
20260506134054 13 0 0.0 0.0 0.00 0.00 0.00 86 1019.2
20260506133554 13 0 0.0 0.0 0.00 0.00 0.00 86 1019.2
20260506133054 13 0 0.0 0.0 0.00 0.00 0.00 86 1019.2
20260506132554 13 0 0.0 0.0 0.00 0.00 0.00 86 1019.2
20260506132054 13 0 0.0 1.6 0.00 0.00 0.00 86 1019.1
20260506131602 13 0 0.0 1.6 0.00 0.00 0.00 86 1019.0
20260506131054 13 0 0.0 1.6 0.00 0.00 0.00 86 1019.0
20260506130554 13 0 0.0 1.6 0.00 0.00 0.00 86 1019.1
20260506130121 13 0 0.0 1.6 0.00 0.00 0.00 86 1019.1
20260506125553 13 0 0.0 1.6 0.00 0.00 0.00 86 1018.9
20260506125053 13 0 0.0 3.2 0.00 0.00 0.00 86 1018.9
20260506124600 13 0 0.0 4.8 0.00 0.00 0.00 86 1018.9
20260506124054 13 0 0.0 4.8 0.00 0.00 0.00 86 1018.9
20260506123555 13 0 1.6 4.8 0.00 0.00 0.00 86 1019.0
20260506123054 13 29 0.0 4.8 0.00 0.00 0.00 86 1018.9
20260506122557 13 0 0.0 4.8 0.00 0.00 0.00 86 1019.0
20260506122056 13 37 0.0 6.4 0.00 0.00 0.00 85 1018.9
20260506121556 13 0 1.6 8.0 0.00 0.00 0.00 85 1018.9
20260506121056 13 0 1.6 8.0 0.00 0.00 0.00 85 1018.8
20260506120554 13 31 3.2 8.0 0.00 0.00 0.00 85 1019.0
20260506120106 13 29 0.0 8.0 0.00 0.00 0.00 85 1018.8